Weather History for Lulea-Kallax, Sweden

Change the Weather History Date:

Saturday, January 19, 2013

  Actual Average Record
Temperature  
Mean Temperature 26 °F -  
Max Temperature 35 °F - - ()
Min Temperature 17 °F - - ()
Degree Days  
Heating Degree Days 38    
Moisture  
Dew Point 25 °F    
Average Humidity 88    
Maximum Humidity 100    
Minimum Humidity 77    
Precipitation  
Precipitation 0.00 in - - ()
Sea Level Pressure  
Sea Level Pressure 29.69 in    
Wind  
Wind Speed 9 mph ()    
Max Wind Speed 16 mph    
Max Gust Speed -    
Visibility 6.2 miles    
Events      
T = Trace of Precipitation, MM = Missing Value Source: Averaged Metar Reports

Daily Weather History Graph

Daily Weather History Graph

Search for Another Location

Airport:

Trip Planner

Search our weather history database for the weather conditions in past years. The results will help you decide how hot, cold, wet, or windy it might be!

Date:

Astronomy

Jan. 19, 2013 Rise Set
Actual Time 9:05 AM CET 2:19 PM CET
Civil Twilight 7:53 AM CET 3:31 PM CET
Nautical Twilight 6:46 AM CET 4:38 PM CET
Astronomical Twilight 5:46 AM CET 5:39 PM CET
Moon 9:22 AM CET (1/19) 1:27 AM CET (1/19)
Length of Visible Light 7h 37m
Length of Day
5h 14m
First Quarter, 54% of the Moon is Illuminated
Jan 19
First Quarter
Jan 27
Full
Feb 3
Last Quarter
Feb 10
New
Feb 17
First Quarter

Hourly Weather History & Observations

Time (CET) Temp. Windchill Dew Point Humidity Pressure Visibility Wind Dir Wind Speed Gust Speed Precip Events Conditions
12:00 AM 30 °F - 30 °F 100% 29.72 in 28 mi WNW 2.2 mph - -  
12:20 AM 32.0 °F 28.7 °F 32.0 °F 100% 29.71 in 6.2 mi WNW 3.5 mph - N/A   Partly Cloudy
12:50 AM 32.0 °F 25.6 °F 32.0 °F 100% 29.68 in 6.2 mi West 6.9 mph - N/A   Mostly Cloudy
1:00 AM 32 °F - 31 °F 97% 29.70 in 28 mi WNW 4.5 mph - -  
1:20 AM 32.0 °F 24.8 °F 32.0 °F 100% 29.68 in 6.2 mi WNW 8.1 mph - N/A   Partly Cloudy
1:50 AM 33.8 °F 27.7 °F 32.0 °F 93% 29.65 in 6.2 mi WNW 6.9 mph - N/A   Mostly Cloudy
2:00 AM 33 °F - 32 °F 96% 29.68 in 31 mi West 6.7 mph - -  
2:20 AM 33.8 °F 28.6 °F 33.8 °F 100% 29.65 in 6.2 mi WNW 5.8 mph - N/A   Unknown
2:50 AM 33.8 °F 26.4 °F 33.8 °F 100% 29.62 in 6.2 mi West 9.2 mph - N/A   Scattered Clouds
3:00 AM 34 °F - 32 °F 91% 29.64 in 31 mi West 11.2 mph - -  
3:20 AM 35.6 °F 26.6 °F 32.0 °F 87% 29.62 in 6.2 mi West 13.8 mph - N/A   Partly Cloudy
3:50 AM 35.6 °F 26.6 °F 32.0 °F 87% 29.62 in 6.2 mi West 13.8 mph - N/A   Mostly Cloudy
4:20 AM 35.6 °F 26.6 °F 32.0 °F 87% 29.59 in 6.2 mi West 13.8 mph - N/A   Scattered Clouds
4:50 AM 35.6 °F 27.1 °F 32.0 °F 87% 29.59 in - West 12.7 mph - N/A   Clear
5:00 AM 35 °F - 32 °F 84% 29.60 in 31 mi WNW 11.2 mph - -  
5:20 AM 35.6 °F 27.1 °F 32.0 °F 87% 29.59 in - West 12.7 mph - N/A   Clear
5:50 AM 35.6 °F 27.1 °F 32.0 °F 87% 29.56 in 6.2 mi West 12.7 mph - N/A   Partly Cloudy
6:00 AM 35 °F - 32 °F 83% 29.59 in 31 mi WNW 13.4 mph - -  
6:20 AM 35.6 °F 27.1 °F 32.0 °F 87% 29.56 in 6.2 mi WNW 12.7 mph - N/A   Partly Cloudy
6:50 AM 35.6 °F 27.5 °F 32.0 °F 87% 29.56 in 6.2 mi WNW 11.5 mph - N/A   Partly Cloudy
7:00 AM 35 °F - 32 °F 83% 29.58 in 31 mi WNW 11.2 mph - -  
7:20 AM 35.6 °F 27.1 °F 32.0 °F 87% 29.56 in - WNW 12.7 mph - N/A   Clear
7:50 AM 35.6 °F 26.2 °F 32.0 °F 87% 29.56 in - NW 15.0 mph - N/A   Clear
8:00 AM 33 °F - 30 °F 84% 29.59 in 28 mi NNW 13.4 mph - -  
8:20 AM 33.8 °F 23.5 °F 30.2 °F 87% 29.59 in - NW 16.1 mph - N/A   Clear
8:50 AM 33.8 °F 24.8 °F 32.0 °F 93% 29.59 in - NNW 12.7 mph - N/A   Clear
9:00 AM 33 °F - 31 °F 88% 29.62 in 28 mi NNW 8.9 mph - -  
9:20 AM 33.8 °F 27.0 °F 32.0 °F 93% 29.59 in - NNW 8.1 mph - N/A   Clear
9:50 AM 32.0 °F 25.6 °F 30.2 °F 93% 29.62 in - NNW 6.9 mph - N/A   Clear
10:20 AM 28.4 °F 21.2 °F 26.6 °F 93% 29.62 in - NNW 6.9 mph - N/A   Clear
10:50 AM 30.2 °F 23.4 °F 28.4 °F 93% 29.62 in - North 6.9 mph - N/A   Clear
11:00 AM 30 °F - 28 °F 89% 29.65 in 28 mi North 8.9 mph - -  
11:20 AM 32.0 °F 24.8 °F 28.4 °F 87% 29.65 in 6.2 mi NNW 8.1 mph - N/A   Partly Cloudy
11:50 AM 32.0 °F 24.8 °F 28.4 °F 87% 29.65 in 6.2 mi NNW 8.1 mph - N/A   Scattered Clouds
12:00 PM 31 °F - 28 °F 85% 29.68 in 28 mi North 6.7 mph - -   Overcast
12:20 PM 32.0 °F 25.6 °F 28.4 °F 87% 29.65 in 6.2 mi North 6.9 mph - N/A   Scattered Clouds
12:50 PM 32.0 °F 24.8 °F 28.4 °F 87% 29.65 in - North 8.1 mph - N/A   Clear
1:00 PM 30 °F - 27 °F 82% 29.69 in 31 mi NNW 8.9 mph - -  
1:20 PM 30.2 °F 23.4 °F 26.6 °F 86% 29.68 in - NNW 6.9 mph - N/A   Clear
1:50 PM 28.4 °F 20.4 °F 24.8 °F 86% 29.68 in - NNW 8.1 mph - N/A   Clear
2:00 PM 26 °F - 22 °F 79% 29.71 in 31 mi NNW 8.9 mph - -  
2:20 PM 24.8 °F 15.3 °F 21.2 °F 86% 29.68 in - NW 9.2 mph - N/A   Clear
2:50 PM 24.8 °F 14.0 °F 21.2 °F 86% 29.71 in - NW 11.5 mph - N/A   Clear
3:00 PM 26 °F - 22 °F 77% 29.72 in 31 mi NNW 11.2 mph - -  
3:20 PM 26.6 °F 16.8 °F 23.0 °F 86% 29.71 in - NW 10.4 mph - N/A   Clear
3:50 PM 23.0 °F 11.7 °F 19.4 °F 86% 29.71 in - NW 11.5 mph - N/A   Clear
4:20 PM 23.0 °F 12.4 °F 19.4 °F 86% 29.71 in - NW 10.4 mph - N/A   Clear
4:50 PM 21.2 °F 10.1 °F 17.6 °F 86% 29.74 in 6.2 mi NW 10.4 mph - N/A   Partly Cloudy
5:00 PM 21 °F - 18 °F 82% 29.75 in 31 mi NW 8.9 mph - -  
5:20 PM 23.0 °F 13.9 °F 19.4 °F 86% 29.74 in 6.2 mi NW 8.1 mph - N/A   Partly Cloudy
5:50 PM 19.4 °F 8.6 °F 15.8 °F 86% 29.74 in - NW 9.2 mph - N/A   Clear
6:00 PM 18 °F - 16 °F 86% 29.77 in 28 mi NNW 6.7 mph - -  
6:20 PM 19.4 °F 7.9 °F 15.8 °F 86% 29.74 in - NW 10.4 mph - N/A   Clear
6:50 PM 19.4 °F 7.9 °F 15.8 °F 86% 29.77 in - NW 10.4 mph - N/A   Clear
7:00 PM 19 °F - 16 °F 84% 29.78 in 28 mi NW 8.9 mph - -  
7:20 PM 19.4 °F 7.2 °F 17.6 °F 93% 29.77 in - NW 11.5 mph - N/A   Clear
7:50 PM 19.4 °F 6.6 °F 17.6 °F 93% 29.77 in - NW 12.7 mph - N/A   Clear
8:00 PM 20 °F - 17 °F 82% 29.80 in 28 mi NNW 13.4 mph - -  
8:20 PM 21.2 °F 8.3 °F 17.6 °F 86% 29.80 in - NW 13.8 mph - N/A   Clear
8:50 PM 19.4 °F 6.6 °F 15.8 °F 86% 29.80 in 6.2 mi NW 12.7 mph - N/A   Unknown
9:00 PM 18 °F - 15 °F 84% 29.81 in 28 mi NW 11.2 mph - -  
9:20 PM 19.4 °F 6.6 °F 15.8 °F 86% 29.80 in 6.2 mi NW 12.7 mph - N/A   Unknown
9:50 PM 19.4 °F 6.6 °F 15.8 °F 86% 29.80 in 6.2 mi NW 12.7 mph - N/A   Unknown
10:20 PM 19.4 °F 5.5 °F 15.8 °F 86% 29.80 in 6.2 mi NW 15.0 mph - N/A   Scattered Clouds
10:50 PM 19.4 °F 7.9 °F 15.8 °F 86% 29.83 in 6.2 mi NW 10.4 mph - N/A   Partly Cloudy
11:00 PM 19 °F - 16 °F 85% 29.84 in 28 mi NNW 8.9 mph - -  
11:20 PM 19.4 °F 6.6 °F 15.8 °F 86% 29.83 in 6.2 mi NW 12.7 mph - N/A   Partly Cloudy
11:50 PM 17.6 °F 3.7 °F 15.8 °F 93% 29.83 in 6.2 mi NW 13.8 mph - N/A   Partly Cloudy